Terminal Aerodrome Forecast
Issued by NWS Charleston, WV

Current Version | Previous Version | Graphics & Text | Print | Product List | Glossary On
Versions: 1 2 3 4 5 6 7 8 9 10 11 12 13 14 15 16 17 18 19 20 21 22
000
FTUS41 KRLX 230500
TAFBKW
TAF
KBKW 230537Z 2306/2406 32012KT P6SM SKC
     FM231600 32011G20KT P6SM SKC
     FM240000 32005KT P6SM SKC
     FM240500 00000KT P6SM SKC=

USA.gov is the U.S. government's official web portal to all federal, state and local government web resources and services.